W5JXT Weather Reports


time (UTC)temp
C
wind
direction
speed
KPH
gust
KPH
rain 1hr
cm
rain 24hr
cm
rain mn
cm
humidity
%
barometer
mb
20260510190002 22 39 9.7 22.5 0.00 0.00 0.00 44 1021.7
20260510181500 22 30 9.7 27.4 0.00 0.00 0.00 47 1021.0
20260510180002 21 39 14.5 30.6 0.00 0.00 0.00 49 1020.9
20260510174501 21 33 11.3 32.2 0.00 0.00 0.00 49 1020.6
20260510172959 21 354 8.0 29.0 0.00 0.00 0.00 49 1020.2
20260510171500 21 42 9.7 27.4 0.00 0.00 0.00 48 1021.2
20260510170002 21 321 12.9 35.4 0.00 0.00 0.00 50 1021.3
20260510164501 20 82 14.5 30.6 0.00 0.00 0.00 51 1020.9
20260510163000 20 8 9.7 32.2 0.00 0.00 0.00 54 1020.8
20260510161459 18 15 16.1 35.4 0.00 0.00 0.00 54 1020.1
20260510160002 18 20 9.7 29.0 0.00 0.00 0.00 52 1020.2
20260510154459 18 349 12.9 35.4 0.00 0.00 0.00 52 1020.5
20260510152959 18 347 9.7 27.4 0.00 0.00 0.00 52 1020.7
20260510144459 18 338 11.3 27.4 0.00 0.00 0.00 53 1020.6
20260510143001 18 13 12.9 35.4 0.00 0.00 0.00 53 1020.3
20260510141459 18 78 14.5 32.2 0.00 0.00 0.00 52 1020.0
20260510134459 18 321 9.7 33.8 0.00 0.00 0.00 49 1019.0
20260510133000 19 25 6.4 35.4 0.00 0.00 0.00 47 1018.5
20260510130002 20 26 8.0 32.2 0.00 0.00 0.00 45 1017.4
20260510124501 20 315 8.0 29.0 0.00 0.00 0.00 44 1016.5
20260510123001 20 23 4.8 40.2 0.00 0.00 0.00 40 1015.3
20260510121500 20 30 3.2 25.7 0.00 0.00 0.00 43 1014.9
20260510114459 20 314 0.0 6.4 0.00 0.00 0.00 32 1013.5
20260510113001 21 30 0.0 51.5 0.00 0.00 0.00 30 1012.6
20260510111459 22 33 6.4 67.6 0.00 0.00 0.00 27 1012.4
20260510105959 22 300 0.0 265.5 0.00 0.00 0.00 25 1011.6
20260510102959 23 42 0.0 8.0 0.00 0.00 0.00 22 1011.5
20260510101459 25 264 0.0 9.7 0.00 0.00 0.00 20 1011.3
20260510095959 25 304 1.6 6.4 0.00 0.00 0.00 19 1011.6
20260510094500 25 322 0.0 4.8 0.00 0.00 0.00 19 1011.4
20260510092959 25 238 0.0 11.3 0.00 0.00 0.00 20 1010.5
20260510091459 25 110 0.0 1.6 0.00 0.00 0.00 20 1010.5
20260510084500 25 33 0.0 11.3 0.00 0.00 0.00 20 1010.3
20260510083000 25 16 3.2 17.7 0.00 0.00 0.00 21 1010.3
20260510081501 24 25 4.8 30.6 0.00 0.00 0.00 24 1010.8
20260510080001 25 132 1.6 14.5 0.00 0.00 0.00 22 1010.7
20260510074501 23 246 0.0 0.0 0.00 0.00 0.00 23 1010.4
20260510072959 23 248 0.0 1.6 0.00 0.00 0.00 23 1010.6
20260510071500 24 267 0.0 1.6 0.00 0.00 0.00 22 1010.7
20260510065959 23 158 0.0 0.0 0.00 0.00 0.00 24 1010.7
20260510064459 23 160 0.0 0.0 0.00 0.00 0.00 24 1010.8
20260510061459 23 243 0.0 0.0 0.00 0.00 0.00 22 1010.9
20260510054501 23 100 0.0 1.6 0.00 0.00 0.00 24 1010.4
20260510053001 23 252 0.0 1.6 0.00 0.00 0.00 26 1010.9
20260510051501 23 311 0.0 0.0 0.00 0.00 0.00 26 1010.5
20260510050001 23 96 0.0 0.0 0.00 0.00 0.00 25 1010.7
20260510044459 25 307 0.0 0.0 0.00 0.00 0.00 22 1010.9
20260510041500 25 214 0.0 0.0 0.00 0.00 0.00 24 1010.8
20260510040000 25 212 0.0 0.0 0.00 0.00 0.00 21 1010.8
20260510033001 28 230 0.0 3.2 0.00 0.00 0.00 16 1010.4
20260510031500 29 194 0.0 9.7 0.00 0.00 0.00 14 1010.3
20260510030002 28 127 1.6 17.7 0.00 0.00 0.00 15 1010.0
20260510022959 27 166 0.0 0.0 0.00 0.00 0.00 18 1009.7
20260510021500 27 195 0.0 1.6 0.00 0.00 0.00 18 1009.5
20260510020002 28 186 0.0 0.0 0.00 0.00 0.00 18 1009.4
20260510014501 28 170 0.0 1.6 0.00 0.00 0.00 17 1009.2
20260510011500 30 184 0.0 4.8 0.00 0.00 0.00 15 1009.1
20260510010003 31 205 1.6 6.4 0.00 0.00 0.00 15 1008.9
20260510002959 32 194 0.0 3.2 0.00 0.00 0.00 14 1009.0
20260509234500 34 227 3.2 16.1 0.00 0.00 0.00 12 1009.3
20260509233002 33 224 1.6 8.0 0.00 0.00 0.00 13 1009.4
20260509231501 34 154 1.6 11.3 0.00 0.00 0.00 13 1009.3
20260509230000 34 189 3.2 17.7 0.00 0.00 0.00 13 1009.4
20260509224500 34 203 4.8 14.5 0.00 0.00 0.00 13 1009.6
20260509223000 34 156 6.4 20.9 0.00 0.00 0.00 13 1009.7
20260509221500 34 198 3.2 17.7 0.00 0.00 0.00 12 1009.9
20260509220003 34 236 1.6 19.3 0.00 0.00 0.00 12 1010.2
20260509214501 33 270 3.2 14.5 0.00 0.00 0.00 12 1010.4
20260509212959 33 205 3.2 16.1 0.00 0.00 0.00 12 1010.7
20260509211500 33 151 1.6 12.9 0.00 0.00 0.00 13 1010.9
20260509204502 33 229 4.8 14.5 0.00 0.00 0.00 13 1011.3
20260509203001 33 262 3.2 16.1 0.00 0.00 0.00 14 1011.7
20260509201501 33 217 4.8 14.5 0.00 0.00 0.00 14 1011.8
20260509200002 33 219 3.2 16.1 0.00 0.00 0.00 14 1012.0
20260509194459 33 121 3.2 16.1 0.00 0.00 0.00 15 1012.1
20260509192959 32 217 1.6 9.7 0.00 0.00 0.00 14 1012.3